Location: Hope
(40.9110°N, 74.9680°W)
Time: 21:12:55
(UTC-05:00)

ISS - Visible Passes

Search period start: 16 November 2018 00:00
Search period end: 26 November 2018 00:00
Orbit: 402 x 408 km, 51.6° (Epoch: 17 November)

Date Brightness Start Highest point End Pass type
(mag) Time Alt. Az. Time Alt. Az. Time Alt. Az.
16 Nov -0.6 04:16:49 12° SE 04:16:49 12° SE 04:17:03 10° SE visible
22 Nov -1.4 18:50:30 10° SW 18:51:33 19° SW 18:51:33 19° SW visible
23 Nov -2.7 17:58:49 10° SSW 18:01:40 28° SE 18:01:54 28° SE visible
24 Nov -1.7 17:07:43 10° SSE 17:09:42 15° SE 17:11:41 10° E visible
24 Nov -2.3 18:42:38 10° WSW 18:44:49 37° W 18:44:49 37° W visible
25 Nov -3.9 17:50:27 10° SW 17:53:41 74° SE 17:54:58 33° ENE visible
